Weather in Naperville

United States     41°46′40″N   88°09′13″W
temp.,
°C
wind,
m/s
gust,
m/s
humid.,
%
clouds,
%
prec.,
mm/h
press.,
hPa
HPBL,
m
7 may, fri
fri701:00+5wsw22870 0.3 101825
04:00+4w3388100 0.0 101630
07:00+7wnw51178100 0.0 1016715
10:00+11nw79599 0.1 10161657
13:00+13nw794375 0.1 10162286
16:00+12nnw794879 0.0 10161887
19:00+10nnw59595 0.0 1017513
22:00+5n35765 0.0 101984
8 may, sat
sat801:00+3n22830 0.0 102029
04:00+3n11880 0.0 102010
07:00+5ne11836 0.0 102159
10:00+10e2251100 0.0 10201266
13:00+12s3347100 0.0 10191637
16:00+13ssw4447100 0.0 10171698
19:00+8ese4783100 1.6 1017445
22:00+6e5893100 2.1 1017447
9 may, sun
sun901:00+6e71194100 3.2 1013656
04:00+6ene71394100 8.8 1010742
07:00+6ne91495100 24.8 1008846
10:00+5ne91493100 6.5 1008850
13:00+5ne81394100 7.6 1009784
16:00+7ne81288100 0.1 10111060
19:00+8nne611785 0.1 1014875
22:00+4n41173100 0.0 1017265
10 may, mon
mon1001:00+4nne4107926 0.0 1018255
04:00+2n478767 0.0 1020139
07:00+3n39785 0.0 1022304
10:00+8n575587 0.0 10231049
13:00+11nnw56465 0.0 10231868
16:00+12n5645100 0.0 10232191
19:00+9ene356152 0.0 1024196
22:00+4e226998 0.0 102612
11 may, tue
tue1101:00+3w00765 0.0 102710
04:00+2w22800 0.0 102820
07:00+5wnw24800 0.0 1030117
10:00+12nw45530 0.0 1029911
13:00+15nnw45435 0.0 10292031
16:00+16nnw344311 0.0 10272059
19:00+14nnw2261100 0.0 102713
22:00+9se346144 0.0 102945